Location: Newark
(50.4375°N, 16.6489°E)
Time: 03:18:35
(UTC+00:00)

Envisat - Pass Details

Date: 26 September 2019
Orbit: 764 x 766 km, 98.1° (Epoch: 15 October)

Event Time Altitude Azimuth Distance (km) Brightness Sun altitude
Rises 17:21:03 0° 180° (S) 3,221 6.2 -6.8°
Reaches altitude 10° 17:23:25 10° 186° (S) 2,299 5.5 -7.2°
Maximum altitude 17:28:19 49° 261° (W) 986 4.1 -7.9°
Drops below altitude 10° 17:33:16 10° 336° (NNW) 2,315 6.0 -8.7°
Sets 17:35:40 0° 342° (NNW) 3,246 6.6 -9.1°
